GW6616 Weather Reports


time (UTC)temp
C
wind
direction
speed
KPH
gust
KPH
rain 1hr
cm
rain 24hr
cm
rain mn
cm
humidity
%
barometer
mb
20260905205007 31 173 0.0 3.2 0.00 0.05 0.05 63 1012.4
20260905204514 31 173 0.0 3.2 0.00 0.05 0.05 67 1012.5
20260905204011 30 160 1.6 3.2 0.00 0.05 0.05 63 1012.5
20260905203513 30 160 0.0 3.2 0.00 0.05 0.05 63 1012.5
20260905203024 30 133 0.0 3.2 0.03 0.05 0.05 68 1012.5
20260905202518 30 132 0.0 3.2 0.05 0.05 0.05 69 1012.6
20260905202014 30 224 0.0 3.2 0.05 0.05 0.05 71 1012.7
20260905201526 30 224 0.0 3.2 0.05 0.05 0.05 69 1012.7
20260905201015 30 334 0.0 3.2 0.05 0.05 0.05 71 1012.7
20260905200515 27 148 0.0 3.2 0.05 0.05 0.05 81 1012.8
20260905200032 27 166 1.6 4.8 0.05 0.05 0.05 79 1013.0
20260905195519 27 136 1.6 4.8 0.05 0.05 0.05 78 1013.1
20260905195008 27 229 1.6 4.8 0.05 0.05 0.05 69 1013.2
20260905194514 28 316 1.6 8.0 0.05 0.05 0.05 70 1013.3
20260905194012 28 284 3.2 8.0 0.05 0.05 0.05 70 1013.7
20260905193507 28 157 3.2 3.2 0.05 0.05 0.05 77 1013.4
20260905193019 30 311 0.0 6.4 0.03 0.03 0.03 70 1013.3
20260905192513 31 352 1.6 6.4 0.00 0.00 0.00 66 1013.3
20260905192014 31 326 1.6 11.3 0.00 0.00 0.00 67 1013.3
20260905191528 32 332 1.6 11.3 0.00 0.00 0.00 58 1013.1
20260905191016 33 311 3.2 11.3 0.00 0.00 0.00 56 1013.2
20260905190517 33 223 3.2 8.0 0.00 0.00 0.00 58 1013.2
20260905190029 33 20 1.6 6.4 0.00 0.00 0.00 64 1013.1
20260905185517 32 302 0.0 3.2 0.00 0.00 0.00 60 1013.0
20260905185014 32 194 0.0 3.2 0.00 0.00 0.00 61 1013.2
20260905184550 32 302 1.6 3.2 0.00 0.00 0.00 62 1013.2
20260905184008 32 157 1.6 3.2 0.00 0.00 0.00 65 1013.4
20260905183511 32 190 0.0 3.2 0.00 0.00 0.00 63 1013.5
20260905183036 32 15 1.6 3.2 0.00 0.00 0.00 57 1013.6
20260905182513 32 315 1.6 3.2 0.00 0.00 0.00 58 1013.6
20260905182014 32 160 1.6 4.8 0.00 0.00 0.00 60 1013.7
20260905181524 32 298 1.6 4.8 0.00 0.00 0.00 63 1013.8
20260905181013 32 143 1.6 4.8 0.00 0.00 0.00 59 1013.9
20260905180516 32 67 1.6 4.8 0.00 0.00 0.00 64 1014.0
20260905180033 32 95 1.6 4.8 0.00 0.00 0.00 59 1014.1
20260905175514 32 125 0.0 4.8 0.00 0.00 0.00 69 1014.2
20260905175018 32 325 1.6 4.8 0.00 0.00 0.00 61 1014.2
20260905174529 32 119 1.6 3.2 0.00 0.00 0.00 59 1014.2
20260905174020 32 22 1.6 3.2 0.00 0.00 0.00 62 1014.3
20260905173510 32 323 0.0 4.8 0.00 0.00 0.00 64 1014.2
20260905173013 32 138 0.0 4.8 0.00 0.00 0.00 62 1014.2
20260905172513 31 286 1.6 6.4 0.00 0.00 0.00 63 1014.2
20260905172012 31 55 3.2 6.4 0.00 0.00 0.00 62 1014.2
20260905171521 31 150 1.6 4.8 0.00 0.00 0.00 64 1014.2
20260905171013 31 189 1.6 4.8 0.00 0.00 0.00 64 1014.2
20260905170512 31 203 1.6 4.8 0.00 0.00 0.00 64 1014.2
20260905170026 30 207 1.6 4.8 0.00 0.00 0.00 67 1014.3
20260905165516 31 213 1.6 4.8 0.00 0.00 0.00 66 1014.4
20260905165017 30 12 1.6 4.8 0.00 0.00 0.00 62 1014.4
20260905164533 30 276 3.2 4.8 0.00 0.00 0.00 62 1014.5
20260905164015 30 26 1.6 4.8 0.00 0.00 0.00 63 1014.5
20260905163515 30 21 0.0 8.0 0.00 0.00 0.00 67 1014.5
20260905163031 30 133 0.0 8.0 0.00 0.00 0.00 65 1014.5
20260905162511 30 267 1.6 4.8 0.00 0.00 0.00 67 1014.5
20260905162010 29 325 0.0 3.2 0.00 0.00 0.00 69 1014.4
20260905161517 28 196 0.0 3.2 0.00 0.00 0.00 69 1014.6
20260905161010 28 317 0.0 3.2 0.00 0.00 0.00 70 1014.8
20260905160514 29 275 1.6 3.2 0.00 0.00 0.00 66 1014.8
20260905160027 29 261 0.0 4.8 0.00 0.00 0.00 69 1014.5
20260905155516 30 240 1.6 8.0 0.00 0.00 0.00 68 1014.4
20260905155015 29 231 0.0 8.0 0.00 0.00 0.00 67 1014.5
20260905154540 29 250 1.6 8.0 0.00 0.00 0.00 70 1014.6
20260905154017 30 173 1.6 4.8 0.00 0.00 0.00 68 1014.9
20260905153518 30 40 1.6 4.8 0.00 0.00 0.00 68 1014.9
20260905153031 30 22 1.6 4.8 0.00 0.00 0.00 70 1014.9
20260905152519 29 328 1.6 6.4 0.00 0.00 0.00 68 1014.8
20260905152020 29 138 1.6 6.4 0.00 0.00 0.00 71 1014.6
20260905151516 28 82 1.6 6.4 0.00 0.00 0.00 68 1014.7
20260905151015 28 223 1.6 6.4 0.00 0.00 0.00 70 1014.5
20260905150514 28 152 0.0 6.4 0.00 0.00 0.00 72 1014.5
20260905150023 28 182 1.6 4.8 0.00 0.00 0.00 71 1014.8
20260905145513 28 118 1.6 6.4 0.00 0.00 0.00 70 1015.1
20260905145016 28 275 0.0 6.4 0.00 0.00 0.00 71 1015.1
20260905144534 28 157 1.6 3.2 0.00 0.00 0.00 71 1014.9
20260905144017 28 164 0.0 3.2 0.00 0.00 0.00 72 1014.9
20260905143519 28 28 0.0 4.8 0.00 0.00 0.00 74 1014.9
20260905143033 27 105 1.6 4.8 0.00 0.00 0.00 76 1015.0
20260905142515 27 238 0.0 4.8 0.00 0.00 0.00 79 1015.0
20260905142020 27 155 0.0 3.2 0.00 0.00 0.00 79 1014.9
20260905141534 26 196 0.0 3.2 0.00 0.00 0.00 80 1014.8
20260905141019 26 209 0.0 3.2 0.00 0.00 0.00 80 1014.8
20260905140510 26 146 0.0 3.2 0.00 0.00 0.00 80 1014.9
20260905140017 26 142 1.6 3.2 0.00 0.00 0.00 80 1014.8
20260905135512 26 158 0.0 3.2 0.00 0.00 0.00 83 1014.9
20260905135017 25 136 0.0 3.2 0.00 0.00 0.00 83 1014.8
20260905134527 25 138 1.6 3.2 0.00 0.00 0.00 84 1014.7
20260905134019 25 259 0.0 3.2 0.00 0.00 0.00 83 1014.5
20260905133514 25 259 0.0 3.2 0.00 0.00 0.00 83 1014.6
20260905133041 25 258 0.0 3.2 0.00 0.00 0.00 83 1014.6
20260905132518 25 259 0.0 3.2 0.00 0.00 0.00 84 1014.5
20260905132016 24 259 0.0 1.6 0.00 0.00 0.00 84 1014.5
20260905131538 24 259 0.0 3.2 0.00 0.00 0.00 84 1014.5
20260905131018 24 259 0.0 3.2 0.00 0.00 0.00 84 1014.5
20260905130518 24 259 0.0 3.2 0.00 0.00 0.00 84 1014.4
20260905130033 23 259 0.0 3.2 0.00 0.00 0.00 84 1014.4
20260905125510 23 259 0.0 0.0 0.00 0.00 0.00 84 1014.4
20260905125014 23 259 0.0 0.0 0.00 0.00 0.00 85 1014.5
20260905124527 23 259 0.0 0.0 0.00 0.00 0.00 85 1014.4
20260905124017 23 259 0.0 0.0 0.00 0.00 0.00 85 1014.4
20260905123517 23 259 0.0 0.0 0.00 0.00 0.00 85 1014.3
20260905123030 23 259 0.0 0.0 0.00 0.00 0.00 85 1014.3
20260905122516 23 259 0.0 0.0 0.00 0.00 0.00 85 1014.2
20260905122017 23 259 0.0 0.0 0.00 0.00 0.00 85 1014.1
20260905121531 23 259 0.0 0.0 0.00 0.00 0.00 85 1014.0
20260905121018 23 259 0.0 0.0 0.00 0.00 0.00 85 1014.1
20260905120518 23 259 0.0 3.2 0.00 0.00 0.00 85 1014.1
20260905120040 23 259 0.0 3.2 0.00 0.00 0.00 85 1014.1
20260905115516 23 259 0.0 3.2 0.00 0.00 0.00 85 1014.1
20260905115014 23 259 0.0 3.2 0.00 0.00 0.00 86 1014.1
20260905114524 23 259 0.0 3.2 0.00 0.00 0.00 85 1014.0
20260905114015 22 259 0.0 3.2 0.00 0.00 0.00 85 1014.1
20260905113516 23 259 0.0 1.6 0.00 0.00 0.00 85 1014.1
20260905113042 23 259 0.0 0.0 0.00 0.00 0.00 85 1014.0
20260905112518 23 259 0.0 0.0 0.00 0.00 0.00 85 1013.9
20260905112018 23 259 0.0 0.0 0.00 0.00 0.00 85 1014.0
20260905111551 23 259 0.0 0.0 0.00 0.00 0.00 85 1014.0
20260905111017 23 259 0.0 0.0 0.00 0.00 0.00 85 1014.0
20260905110506 23 259 0.0 0.0 0.00 0.00 0.00 85 1014.0
20260905110031 23 259 0.0 1.6 0.00 0.00 0.00 85 1013.9
20260905105511 22 259 0.0 1.6 0.00 0.00 0.00 85 1014.0
20260905105010 22 259 0.0 3.2 0.00 0.00 0.00 84 1013.9
20260905104519 23 259 0.0 3.2 0.00 0.00 0.00 85 1013.9
20260905104014 23 259 0.0 1.6 0.00 0.00 0.00 85 1013.8
20260905103519 23 259 0.0 3.2 0.00 0.00 0.00 85 1013.8
20260905103028 23 259 0.0 3.2 0.00 0.00 0.00 85 1013.9
20260905102516 23 259 0.0 0.0 0.00 0.00 0.00 85 1013.9
20260905102015 23 259 0.0 3.2 0.00 0.00 0.00 85 1013.9
20260905101546 23 259 0.0 3.2 0.00 0.00 0.00 85 1013.9
20260905101014 23 259 0.0 3.2 0.00 0.00 0.00 85 1013.9
20260905100519 23 259 0.0 3.2 0.00 0.00 0.00 85 1013.9
20260905100031 23 259 0.0 3.2 0.00 0.00 0.00 84 1013.9
20260905095514 23 259 0.0 3.2 0.00 0.00 0.00 85 1013.9
20260905095012 23 259 0.0 3.2 0.00 0.00 0.00 85 1013.9
20260905094519 23 259 0.0 0.0 0.00 0.00 0.00 84 1013.8
20260905094011 23 259 0.0 0.0 0.00 0.00 0.00 85 1013.8
20260905093514 23 259 0.0 0.0 0.00 0.00 0.00 84 1013.8
20260905093025 23 259 0.0 0.0 0.00 0.00 0.00 85 1013.9
20260905092513 23 259 0.0 3.2 0.00 0.00 0.00 85 1013.8
20260905092016 23 259 0.0 3.2 0.00 0.00 0.00 85 1013.8
20260905091528 23 259 0.0 3.2 0.00 0.00 0.00 85 1013.7
20260905091019 23 259 0.0 3.2 0.00 0.00 0.00 85 1013.8
20260905090518 23 259 0.0 3.2 0.00 0.00 0.00 85 1013.8
20260905090035 23 259 0.0 3.2 0.00 0.00 0.00 85 1013.6
20260905085521 23 259 0.0 3.2 0.00 0.00 0.00 84 1013.5
20260905085016 23 259 0.0 0.0 0.00 0.00 0.00 85 1013.5
20260905084516 23 259 0.0 0.0 0.00 0.00 0.00 85 1013.5
20260905084011 23 259 0.0 0.0 0.00 0.00 0.00 85 1013.4
20260905083511 23 259 0.0 0.0 0.00 0.00 0.00 85 1013.3
20260905083030 23 259 0.0 0.0 0.00 0.00 0.00 85 1013.3
20260905082514 23 259 0.0 0.0 0.00 0.00 0.00 85 1013.4
20260905082014 23 259 0.0 3.2 0.00 0.00 0.00 85 1013.2
20260905081528 23 259 0.0 3.2 0.00 0.00 0.00 85 1013.2
20260905081016 23 259 0.0 3.2 0.00 0.00 0.00 86 1013.3
20260905080518 23 259 0.0 3.2 0.00 0.00 0.00 85 1013.2
20260905080038 23 259 0.0 3.2 0.00 0.00 0.00 85 1013.3
20260905075515 23 259 0.0 3.2 0.00 0.00 0.00 85 1013.3
20260905075015 23 259 0.0 3.2 0.00 0.00 0.00 85 1013.3
20260905074535 23 259 0.0 3.2 0.00 0.00 0.00 85 1013.3
20260905074021 23 259 0.0 1.6 0.00 0.00 0.00 85 1013.3
20260905073512 23 259 0.0 0.0 0.00 0.00 0.00 85 1013.3
20260905073023 23 259 0.0 1.6 0.00 0.00 0.00 85 1013.3
20260905072512 23 259 0.0 1.6 0.00 0.00 0.00 85 1013.2
20260905072015 23 259 0.0 0.0 0.00 0.00 0.00 85 1013.3
20260905071532 23 259 0.0 3.2 0.00 0.00 0.00 85 1013.4
20260905071013 23 259 0.0 3.2 0.00 0.00 0.00 85 1013.5
20260905070515 23 259 0.0 3.2 0.00 0.00 0.00 85 1013.6
20260905070031 23 259 1.6 3.2 0.00 0.00 0.00 84 1013.7
20260905065520 24 183 0.0 0.0 0.00 0.00 0.00 85 1013.7
20260905065014 24 183 0.0 0.0 0.00 0.00 0.00 85 1013.7
20260905064533 24 183 0.0 0.0 0.00 0.00 0.00 85 1013.8
20260905064020 24 183 0.0 0.0 0.00 0.00 0.00 85 1013.8
20260905063520 24 183 0.0 0.0 0.00 0.00 0.00 85 1013.7
20260905063034 24 183 0.0 3.2 0.00 0.00 0.00 85 1013.8
20260905062516 24 183 0.0 3.2 0.00 0.00 0.00 85 1013.8
20260905062013 24 183 0.0 3.2 0.00 0.00 0.00 85 1013.8
20260905061530 24 183 0.0 1.6 0.00 0.00 0.00 85 1013.8
20260905061013 24 183 0.0 1.6 0.00 0.00 0.00 85 1013.9
20260905060515 24 183 0.0 0.0 0.00 0.00 0.00 85 1013.9
20260905060030 24 183 0.0 0.0 0.00 0.00 0.00 85 1013.9
20260905055519 24 183 0.0 0.0 0.00 0.00 0.00 84 1013.9
20260905055007 24 183 0.0 0.0 0.00 0.00 0.00 84 1013.9
20260905054510 25 183 0.0 0.0 0.00 0.00 0.00 85 1013.9
20260905054009 25 183 0.0 1.6 0.00 0.00 0.00 84 1014.0
20260905053508 25 183 0.0 1.6 0.00 0.00 0.00 84 1014.1
20260905053017 25 183 0.0 0.0 0.00 0.00 0.00 84 1014.1
20260905052511 25 183 0.0 0.0 0.00 0.00 0.00 84 1014.0
20260905052011 25 183 0.0 0.0 0.00 0.00 0.00 84 1014.0
20260905051533 25 183 0.0 3.2 0.00 0.00 0.00 84 1014.0
20260905051013 25 183 0.0 3.2 0.00 0.00 0.00 85 1014.1
20260905050515 25 183 0.0 3.2 0.00 0.00 0.00 85 1014.1
20260905050009 25 183 0.0 0.0 0.00 0.00 0.00 85 1014.1
20260905045503 24 183 0.0 0.0 0.00 0.00 0.00 85 1014.1
20260905045006 24 183 0.0 3.2 0.00 0.00 0.00 85 1014.1
20260905044509 24 183 0.0 3.2 0.00 0.00 0.00 84 1014.2
20260905044009 25 178 0.0 3.2 0.00 0.00 0.00 84 1014.2
20260905043507 25 178 0.0 3.2 0.00 0.00 0.00 84 1014.2
20260905043014 25 178 0.0 3.2 0.00 0.00 0.00 84 1014.2
20260905042515 25 178 0.0 3.2 0.00 0.00 0.00 84 1014.1
20260905042012 25 178 0.0 3.2 0.00 0.00 0.00 84 1014.2
20260905041520 25 178 0.0 0.0 0.00 0.00 0.00 84 1014.4
20260905041013 25 178 0.0 0.0 0.00 0.00 0.00 84 1014.4
20260905040514 25 178 0.0 3.2 0.00 0.00 0.00 84 1014.4
20260905040031 25 178 0.0 3.2 0.00 0.00 0.00 84 1014.5
20260905035513 25 178 0.0 1.6 0.00 0.00 0.00 84 1014.5
20260905035007 25 178 0.0 1.6 0.00 0.00 0.00 83 1014.6
20260905034504 25 178 0.0 3.2 0.00 0.00 0.00 83 1014.5
20260905034005 25 178 0.0 3.2 0.00 0.00 0.00 83 1014.4
20260905033510 25 178 0.0 3.2 0.00 0.00 0.00 83 1014.5
20260905033025 25 178 0.0 3.2 0.00 0.00 0.00 83 1014.5
20260905032509 26 178 0.0 0.0 0.00 0.00 0.00 83 1014.6
20260905032009 26 178 0.0 0.0 0.00 0.00 0.00 83 1014.6
20260905031518 26 178 0.0 0.0 0.00 0.00 0.00 83 1014.7
20260905031012 26 178 0.0 0.0 0.00 0.00 0.00 82 1014.7
20260905030514 26 178 0.0 0.0 0.00 0.00 0.00 83 1014.6
20260905030028 26 178 0.0 0.0 0.00 0.00 0.00 83 1014.6
20260905025519 26 178 0.0 0.0 0.00 0.00 0.00 83 1014.7
20260905025017 26 178 0.0 0.0 0.00 0.00 0.00 83 1014.6
20260905024528 26 178 0.0 0.0 0.00 0.00 0.00 83 1014.5
20260905024006 26 178 0.0 0.0 0.00 0.00 0.00 83 1014.5
20260905023506 26 178 0.0 0.0 0.00 0.00 0.00 82 1014.4
20260905023010 26 178 0.0 0.0 0.00 0.00 0.00 81 1014.5
20260905022507 26 178 0.0 1.6 0.00 0.00 0.00 81 1014.4
20260905022010 26 178 0.0 1.6 0.00 0.00 0.00 81 1014.4
20260905021516 26 178 0.0 0.0 0.00 0.00 0.00 81 1014.4
20260905021013 26 178 0.0 3.2 0.00 0.00 0.00 81 1014.4
20260905020516 26 178 0.0 3.2 0.00 0.00 0.00 81 1014.4
20260905020020 26 178 0.0 3.2 0.00 0.00 0.00 81 1014.5
20260905015514 26 178 0.0 3.2 0.00 0.00 0.00 80 1014.4
20260905015015 26 178 0.0 1.6 0.00 0.00 0.00 80 1014.3
20260905014525 26 178 0.0 3.2 0.00 0.00 0.00 80 1014.3
20260905014014 26 178 0.0 3.2 0.00 0.00 0.00 79 1014.3
20260905013518 27 178 0.0 3.2 0.00 0.00 0.00 78 1014.2
20260905013014 27 178 0.0 0.0 0.00 0.00 0.00 78 1014.2
20260905012506 27 180 0.0 0.0 0.00 0.00 0.00 78 1014.2
20260905012012 27 180 0.0 0.0 0.00 0.00 0.00 78 1014.0
20260905011511 27 180 0.0 0.0 0.00 0.00 0.00 77 1013.9
20260905011013 27 180 0.0 0.0 0.00 0.00 0.00 77 1014.0
20260905010512 27 180 0.0 0.0 0.00 0.00 0.00 76 1014.0
20260905010023 27 180 0.0 0.0 0.00 0.00 0.00 76 1013.9
20260905005513 27 180 0.0 0.0 0.00 0.00 0.00 76 1013.9
20260905005016 27 180 0.0 0.0 0.00 0.00 0.00 75 1013.8
20260905004526 28 180 0.0 0.0 0.00 0.00 0.00 75 1013.7
20260905004014 28 180 0.0 0.0 0.00 0.00 0.00 74 1013.6
20260905003514 28 180 0.0 0.0 0.00 0.00 0.00 74 1013.6
20260905003032 28 180 0.0 0.0 0.00 0.00 0.00 73 1013.6
20260905002516 28 180 0.0 0.0 0.00 0.00 0.00 72 1013.5
20260905002007 28 180 0.0 0.0 0.00 0.00 0.00 70 1013.5
20260905001509 28 180 0.0 1.6 0.00 0.00 0.00 69 1013.4
20260905001008 28 180 0.0 3.2 0.00 0.00 0.00 70 1013.4
20260905000510 29 180 0.0 3.2 0.00 0.00 0.00 69 1013.5
20260905000016 29 160 0.0 3.2 0.00 0.00 0.00 67 1013.5
20260904235511 30 160 0.0 3.2 0.00 0.00 0.00 67 1013.5
20260904235012 30 160 0.0 3.2 0.00 0.00 0.00 66 1013.6
20260904234524 30 160 0.0 0.0 0.00 0.00 0.00 64 1013.7
20260904234017 30 160 0.0 0.0 0.00 0.00 0.00 64 1013.6
20260904233516 30 160 0.0 0.0 0.00 0.00 0.00 65 1013.7
20260904233030 30 160 0.0 0.0 0.00 0.00 0.00 64 1013.7
20260904232518 31 160 0.0 3.2 0.00 0.00 0.00 63 1013.6
20260904232016 31 160 0.0 3.2 0.00 0.00 0.00 63 1013.6
20260904231538 31 160 0.0 3.2 0.00 0.00 0.00 62 1013.7
20260904231008 31 160 0.0 3.2 0.00 0.00 0.00 62 1013.6
20260904230511 31 160 0.0 3.2 0.00 0.00 0.00 61 1013.5
20260904230025 31 160 0.0 3.2 0.00 0.00 0.00 61 1013.5
20260904225510 31 142 0.0 3.2 0.00 0.00 0.00 62 1013.5
20260904225012 32 142 0.0 3.2 0.00 0.00 0.00 62 1013.5
20260904224524 32 142 0.0 3.2 0.00 0.00 0.00 61 1013.5
20260904224012 32 219 0.0 3.2 0.00 0.00 0.00 58 1013.5
20260904223515 32 219 0.0 3.2 0.00 0.00 0.00 58 1013.5
20260904223006 32 219 0.0 3.2 0.00 0.00 0.00 59 1013.5
20260904222505 32 219 0.0 3.2 0.00 0.00 0.00 59 1013.5
20260904222005 33 219 1.6 3.2 0.00 0.00 0.00 54 1013.5
20260904221511 33 327 0.0 4.8 0.00 0.00 0.00 51 1013.6
20260904221007 33 309 1.6 6.4 0.00 0.00 0.00 50 1013.6
20260904220506 33 266 1.6 6.4 0.00 0.00 0.00 51 1013.6
20260904220012 33 317 0.0 3.2 0.00 0.00 0.00 54 1013.7
20260904215509 33 265 0.0 3.2 0.00 0.00 0.00 55 1013.8
20260904215011 33 188 0.0 3.2 0.00 0.00 0.00 53 1013.7
20260904214517 33 341 1.6 6.4 0.00 0.00 0.00 49 1013.7
20260904214013 34 324 0.0 6.4 0.00 0.00 0.00 52 1013.9
20260904213513 34 316 3.2 6.4 0.00 0.00 0.00 48 1013.9
20260904213030 34 284 1.6 4.8 0.00 0.00 0.00 51 1013.9
20260904212516 34 319 1.6 4.8 0.00 0.00 0.00 49 1013.9
20260904212003 34 301 1.6 4.8 0.00 0.00 0.00 50 1014.0
20260904211505 34 329 1.6 3.2 0.00 0.00 0.00 50 1014.0
20260904211004 34 339 0.0 6.4 0.00 0.00 0.00 50 1014.0
20260904210512 34 5 0.0 9.7 0.00 0.00 0.00 49 1014.0
20260904210010 34 339 3.2 9.7 0.00 0.00 0.00 49 1014.1
20260904205510 34 333 3.2 9.7 0.00 0.00 0.00 51 1014.1